[[{"header":{"parameterUnit":"m.s-1","parameterCategory":1,"la1":30.2991,"la2":30.254,"lo1":-89.0895,"lo2":-89.0444,"dy":0.0017,"dx":0.0017,"nx":28,"ny":28,"refTime":"2025-12-20T09:00:00:Z","depth":0,"parameterNumber":2,"parameterNumberName":"U-component_of_WINDS"},"data":[0,0,0,0,0,0,0,0,0,0,0,0,0,0,0,0,0,0,0,0,0,0,0,0,0,0,0,0,0,0,0,0,0,0,0,0,0,0,0,0,0,0,0,0,0,0,0,0,0,0,0,0,0,0,0,0,0,0,-1.8846,-1.8847,0,-1.8956,-1.8957,-1.8958,-1.9003,-1.9003,-1.9002,-1.9002,-1.9119,-1.9122,-1.9125,0,0,0,0,0,0,0,0,0,0,0,0,0,-1.8678,-1.868,-1.8845,-1.8847,-1.8848,-1.8955,-1.8957,-1.8958,-1.9003,-1.9003,-1.9002,-1.9002,-1.9117,-1.9121,-1.9125,0,0,0,0,0,0,0,0,0,0,0,0,0,-1.8765,-1.8681,-1.8845,-1.8883,-1.8888,-1.8955,-1.8957,-1.8959,-1.9003,-1.9003,-1.9002,-1.9002,-1.9116,-1.9121,-1.9126,-1.9164,0,0,-1.9141,-1.9143,0,0,0,0,0,0,0,0,-1.876,-1.8772,-1.8876,-1.8881,-1.8886,-1.8965,-1.894,-1.9028,-1.9003,-1.8959,-1.9002,-1.9002,-1.9068,-1.9077,-1.9099,-1.917,-1.9175,-1.9142,-1.9145,-1.9147,-1.9148,0,0,0,0,0,0,0,-1.8754,-1.8767,-1.8889,-1.8878,-1.8884,-1.8896,-1.8908,-1.8957,-1.9015,-1.8963,-1.8967,-1.8979,-1.9071,-1.9094,-1.9102,-1.9177,-1.9141,-1.9146,-1.9149,-1.9151,-1.9285,-1.9285,0,0,0,0,0,0,-1.8741,-1.8762,-1.8886,-1.8892,-1.8821,-1.8899,-1.8913,-1.894,-1.9014,-1.9025,-1.8979,-1.8981,-1.9085,-1.9096,-1.9106,-1.9155,-1.9147,-1.9151,-1.9154,-1.9284,-1.9285,-1.9286,0,0,0,0,0,0,-1.8738,-1.8752,-1.8881,-1.8828,-1.8845,-1.8903,-1.8933,-1.8943,-1.8966,-1.9026,-1.9037,-1.8992,-1.9085,-1.9099,-1.9149,-1.916,-1.9154,-1.9158,-1.9284,-1.9285,-1.9285,-1.9255,0,0,0,0,0,0,-1.8733,-1.875,-1.8765,-1.8828,-1.8848,-1.8922,-1.8934,-1.8945,-1.8974,-1.8977,-1.9041,-1.9051,-1.9086,-1.9141,-1.9154,-1.9167,-1.9162,-1.9283,-1.9284,-1.9285,-1.9255,-1.9255,-1.9254,0,0,0,0,0,-1.8726,-1.8753,-1.8765,-1.878,-1.8867,-1.8922,-1.8934,-1.8972,-1.8974,-1.899,-1.9029,-1.9049,-1.9157,-1.9146,-1.9161,-1.9175,-1.9282,-1.9284,-1.9285,-1.9255,-1.9255,-1.9254,0,0,0,0,0,0,-1.8691,-1.8762,-1.8776,-1.8824,-1.8866,-1.893,-1.895,-1.897,-1.9014,-1.9015,-1.9062,-1.9076,-1.9123,-1.9154,-1.9141,-1.9216,-1.9221,-1.9226,-1.9194,-1.9194,-1.9193,-1.9184,-1.9166,0,0,0,0,0,-1.8689,-1.8726,-1.8787,-1.8823,-1.8843,-1.8893,-1.8918,-1.8944,-1.8991,-1.9009,-1.9052,-1.9097,-1.9141,-1.9169,-1.9213,-1.926,-1.9275,-1.9277,-1.9277,-1.9276,-1.9279,-1.9306,-1.9307,-1.929,-1.929,-1.929,0,0,-1.8684,-1.8728,-1.8749,-1.8817,-1.8853,-1.8891,-1.8908,-1.8948,-1.8978,-1.9016,-1.9065,-1.9098,-1.9152,-1.92,-1.9224,-1.9228,-1.9287,-1.9277,-1.9276,-1.928,-1.9307,-1.9309,-1.931,-1.9291,-1.929,-1.929,0,0,-1.8696,-1.8733,-1.8766,-1.8801,-1.8855,-1.8888,-1.8896,-1.8956,-1.8979,-1.9029,-1.9058,-1.9095,-1.9169,-1.9206,-1.9235,-1.926,-1.928,-1.9273,-1.927,-1.9295,-1.9297,-1.9298,-1.9307,-1.9309,-1.9276,-1.9276,-1.9276,0,-1.8684,-1.8742,-1.8781,-1.882,-1.8849,-1.8883,-1.8918,-1.8951,-1.9017,-1.9037,-1.904,-1.9134,-1.9173,-1.923,-1.9236,-1.9258,-1.9269,-1.9266,-1.9293,-1.9295,-1.9297,-1.9306,-1.9309,-1.9274,-1.9274,-1.9275,-1.9275,0,-1.8725,-1.8765,-1.8786,-1.8846,-1.8878,-1.8915,-1.896,-1.8987,-1.901,-1.9043,-1.9094,-1.9141,-1.9195,-1.9211,-1.9234,-1.9272,-1.9272,-1.9284,-1.929,-1.9297,-1.9306,-1.9309,-1.9272,-1.9273,-1.9273,-1.9274,0,0,-1.8718,-1.8799,-1.8806,-1.8833,-1.8895,-1.8927,-1.8965,-1.9016,-1.9039,-1.9083,-1.9117,-1.9179,-1.919,-1.9222,-1.925,-1.9273,-1.9289,-1.9282,-1.9284,-1.9281,-1.9333,-1.9323,-1.9326,-1.9303,-1.9304,-1.9304,-1.9328,0,-1.8738,-1.8806,-1.8841,-1.8895,-1.8932,-1.8965,-1.8999,-1.9041,-1.9072,-1.911,-1.9145,-1.9188,-1.9199,-1.9219,-1.9243,-1.9281,-1.93,-1.928,-1.9335,-1.9336,-1.932,-1.9331,-1.9321,-1.9341,-1.9332,-1.9332,-1.9333,0,-1.877,-1.8811,-1.8868,-1.8924,-1.8941,-1.897,-1.902,-1.9055,-1.9103,-1.9124,-1.916,-1.9187,-1.923,-1.9232,-1.9292,-1.9278,-1.9302,-1.9325,-1.9327,-1.9333,-1.9335,-1.9338,-1.9349,-1.9352,-1.9339,-1.9338,-1.9338,0,-1.8758,-1.8829,-1.8871,-1.8894,-1.8961,-1.898,-1.901,-1.9057,-1.9086,-1.913,-1.9148,-1.9197,-1.9224,-1.9261,-1.9302,-1.93,-1.9357,-1.9363,-1.9377,-1.9375,-1.9387,-1.9386,-1.9402,-1.9403,-1.9403,-1.9403,-1.9403,0,-1.8776,-1.8809,-1.8867,-1.8893,-1.8931,-1.8972,-1.901,-1.9042,-1.9084,-1.9118,-1.915,-1.9182,-1.9233,-1.9271,-1.9303,-1.9347,-1.9359,-1.9378,-1.9386,-1.9375,-1.9372,-1.9392,-1.9391,-1.9404,-1.9404,-1.9403,-1.9403,0,-1.8769,-1.8809,-1.8858,-1.8916,-1.8932,-1.8957,-1.9009,-1.9036,-1.9069,-1.9111,-1.9124,-1.9176,-1.9222,-1.9266,-1.9328,-1.935,-1.9394,-1.9405,-1.9377,-1.9381,-1.9392,-1.939,-1.9421,-1.9428,-1.9424,-1.9424,-1.9424,0,-1.8778,-1.8804,-1.8864,-1.8888,-1.8916,-1.8955,-1.8983,-1.9026,-1.9054,-1.9111,-1.9131,-1.918,-1.9221,-1.9293,-1.9338,-1.9386,-1.9398,-1.9405,-1.9405,-1.9393,-1.9397,-1.9395,-1.9398,-1.9404,-1.9404,-1.9404,-1.9404,0,-1.8788,-1.8806,-1.8845,-1.8891,-1.8923,-1.8962,-1.9002,-1.902,-1.907,-1.9101,-1.9148,-1.9179,-1.9242,-1.929,-1.9343,-1.9374,-1.9398,-1.9403,-1.9409,-1.9398,-1.938,-1.939,-1.9375,-1.9402,-1.9403,-1.9403,-1.9403,-1.9403,-1.879,-1.8814,-1.886,-1.8902,-1.8936,-1.8972,-1.9,-1.9036,-1.9075,-1.9128,-1.9151,-1.9199,-1.9247,-1.932,-1.9351,-1.939,-1.9395,-1.9403,-1.9405,-1.9407,-1.9404,-1.9374,-1.94,-1.94,-1.94,-1.94,-1.94,0,-1.8801,-1.8832,-1.8871,-1.8924,-1.8957,-1.8975,-1.902,-1.9047,-1.9087,-1.913,-1.9169,-1.9223,-1.9269,-1.9317,-1.9366,-1.9388,-1.94,-1.9399,-1.9398,-1.9405,-1.9397,-1.9387,-1.9389,-1.9389,-1.9389,-1.9389,-1.9389,-1.9389,-1.8811,-1.8853,-1.8877,-1.8936,-1.8967,-1.9012,-1.9036,-1.907,-1.9104,-1.9162,-1.92,-1.923,-1.9275,-1.9328,-1.9372,-1.9385,-1.9401,-1.9398,-1.9414,-1.9405,-1.9406,-1.9406,-1.9397,-1.9401,-1.9401,-1.9419,-1.9419,-1.9419]},{"header":{"parameterUnit":"m.s-1","parameterCategory":1,"la1":30.2991,"la2":30.254,"lo1":-89.0895,"lo2":-89.0444,"dy":0.0017,"dx":0.0017,"nx":28,"ny":28,"refTime":"2025-12-20T09:00:00:Z","depth":0,"parameterNumber":3,"parameterNumberName":"V-component_of_WINDS"},"data":[0,0,0,0,0,0,0,0,0,0,0,0,0,0,0,0,0,0,0,0,0,0,0,0,0,0,0,0,0,0,0,0,0,0,0,0,0,0,0,0,0,0,0,0,0,0,0,0,0,0,0,0,0,0,0,0,0,0,2.5555,2.5555,0,2.5507,2.5507,2.5506,2.5452,2.5452,2.5451,2.545,2.5401,2.54,2.54,0,0,0,0,0,0,0,0,0,0,0,0,0,2.5601,2.5601,2.5555,2.5555,2.5554,2.5507,2.5507,2.5506,2.5452,2.5451,2.5451,2.545,2.5401,2.54,2.54,0,0,0,0,0,0,0,0,0,0,0,0,0,2.557,2.56,2.5555,2.5522,2.5518,2.5508,2.5507,2.5506,2.5453,2.5451,2.545,2.5449,2.5401,2.54,2.54,2.5418,0,0,2.5397,2.5397,0,0,0,0,0,0,0,0,2.5572,2.5568,2.5527,2.5524,2.552,2.5485,2.5505,2.5477,2.5453,2.5478,2.545,2.5449,2.543,2.5426,2.542,2.5416,2.5414,2.5397,2.5396,2.5396,2.5396,0,0,0,0,0,0,0,2.5574,2.557,2.5536,2.5527,2.5522,2.5509,2.5504,2.5499,2.5461,2.5475,2.5471,2.5466,2.5427,2.5421,2.5418,2.5413,2.5397,2.5396,2.5396,2.5395,2.5424,2.5425,0,0,0,0,0,0,2.5581,2.5572,2.5538,2.5535,2.5544,2.5509,2.5503,2.5497,2.5461,2.5454,2.5467,2.5464,2.5423,2.542,2.5417,2.5437,2.5396,2.5395,2.5395,2.5423,2.5424,2.5425,0,0,0,0,0,0,2.5583,2.5579,2.554,2.5553,2.5547,2.551,2.5504,2.5497,2.549,2.5455,2.5448,2.5468,2.5422,2.5418,2.5419,2.5435,2.5395,2.5394,2.5421,2.5423,2.5425,2.5479,0,0,0,0,0,0,2.5584,2.5579,2.5586,2.5553,2.5546,2.5543,2.5505,2.5497,2.5489,2.5484,2.5453,2.5447,2.5421,2.542,2.5418,2.5433,2.5393,2.5419,2.5422,2.5424,2.5475,2.5482,2.5488,0,0,0,0,0,2.5586,2.5603,2.5587,2.5583,2.5553,2.5544,2.554,2.5509,2.549,2.5497,2.5474,2.5448,2.5433,2.5421,2.5418,2.5433,2.5418,2.5421,2.5424,2.5473,2.5481,2.5488,0,0,0,0,0,0,2.5638,2.5598,2.5579,2.5586,2.5569,2.5535,2.5542,2.5519,2.5506,2.5502,2.5464,2.5458,2.5464,2.5448,2.5435,2.545,2.5422,2.5425,2.546,2.5468,2.5474,2.5478,2.5393,0,0,0,0,0,2.565,2.5646,2.5611,2.562,2.5612,2.5579,2.5573,2.5551,2.5532,2.5524,2.5501,2.5484,2.5475,2.547,2.546,2.5473,2.5466,2.5482,2.5488,2.5493,2.5496,2.5503,2.551,2.5435,2.5435,2.5435,0,0,2.5676,2.5653,2.5652,2.563,2.5614,2.561,2.5573,2.557,2.5568,2.5524,2.5524,2.5507,2.5484,2.5492,2.5493,2.5479,2.5516,2.5497,2.5502,2.5501,2.5507,2.5514,2.5521,2.5437,2.5436,2.5436,0,0,2.5721,2.5702,2.5709,2.5694,2.567,2.5648,2.565,2.5619,2.5607,2.5606,2.5573,2.557,2.5555,2.5541,2.5532,2.5573,2.5549,2.5571,2.5605,2.5612,2.5618,2.5623,2.564,2.5646,2.5574,2.5574,2.5574,0,2.5755,2.5748,2.5715,2.5715,2.5707,2.5667,2.5674,2.5661,2.5636,2.5631,2.5615,2.5597,2.5579,2.5583,2.5594,2.5587,2.5589,2.5575,2.562,2.5625,2.5629,2.5644,2.565,2.5577,2.5577,2.5576,2.5576,0,2.5793,2.5789,2.5797,2.5774,2.5767,2.577,2.5738,2.5734,2.5713,2.5693,2.5694,2.5671,2.5656,2.5655,2.5634,2.5657,2.5649,2.5627,2.5598,2.564,2.5653,2.5659,2.5581,2.558,2.5579,2.5578,0,0,2.587,2.5829,2.5833,2.5822,2.5794,2.579,2.5793,2.5779,2.5777,2.5761,2.5763,2.5752,2.5732,2.5722,2.5699,2.5705,2.5741,2.5682,2.5681,2.5695,2.5767,2.5785,2.5792,2.5725,2.5726,2.5726,2.5769,0,2.5911,2.5912,2.5883,2.5893,2.5889,2.5852,2.5854,2.5837,2.5819,2.5813,2.5792,2.5786,2.5759,2.5753,2.5757,2.5736,2.5755,2.5732,2.5727,2.5727,2.5735,2.5799,2.5818,2.5859,2.5774,2.5775,2.5776,0,2.5959,2.5946,2.5956,2.5929,2.5926,2.5928,2.5914,2.5909,2.589,2.5876,2.5865,2.584,2.584,2.5813,2.5814,2.5799,2.5795,2.5785,2.5785,2.5785,2.5755,2.5802,2.5872,2.5879,2.5783,2.5783,2.5782,0,2.6016,2.6001,2.6006,2.5998,2.5965,2.5968,2.5955,2.5934,2.5928,2.5916,2.5912,2.5899,2.5893,2.5884,2.5856,2.5838,2.5862,2.5831,2.5851,2.5852,2.5859,2.5859,2.5931,2.5854,2.5854,2.5854,2.5853,0,2.6066,2.6074,2.6031,2.6034,2.6042,2.6008,2.6017,2.6,2.5982,2.5982,2.5948,2.5949,2.591,2.5907,2.5884,2.589,2.5887,2.5877,2.5871,2.588,2.5882,2.5878,2.5875,2.5855,2.5855,2.5854,2.5854,0,2.6132,2.6103,2.6106,2.6075,2.6068,2.6075,2.6049,2.6051,2.603,2.603,2.6028,2.5996,2.599,2.5961,2.5947,2.5932,2.5946,2.5934,2.5953,2.595,2.5972,2.5971,2.6045,2.6054,2.597,2.5971,2.5972,0,2.6166,2.6172,2.6142,2.6139,2.6128,2.6123,2.6117,2.6084,2.608,2.6058,2.6063,2.6054,2.6046,2.6038,2.6014,2.6004,2.5992,2.6018,2.599,2.6,2.5994,2.5995,2.5996,2.6025,2.6026,2.6027,2.6028,0,2.6231,2.6217,2.621,2.6198,2.6192,2.6181,2.6168,2.6168,2.6131,2.6128,2.6121,2.6115,2.6102,2.6094,2.608,2.6067,2.6042,2.6037,2.6041,2.6052,2.6064,2.606,2.5972,2.6036,2.6035,2.6034,2.6034,2.6033,2.6284,2.6288,2.6268,2.6261,2.6248,2.6237,2.6237,2.6217,2.6211,2.6198,2.6179,2.6176,2.6157,2.6136,2.6124,2.6122,2.6107,2.6113,2.6115,2.6117,2.6123,2.6063,2.6119,2.6118,2.6118,2.6118,2.6118,0,2.6349,2.6334,2.6328,2.6312,2.6307,2.6283,2.6268,2.6266,2.6263,2.6248,2.624,2.6234,2.6226,2.6201,2.6192,2.6194,2.6183,2.6193,2.6193,2.6191,2.6136,2.6134,2.6203,2.6203,2.6203,2.6203,2.6203,2.6203,2.6382,2.6388,2.6372,2.6371,2.6356,2.6352,2.6346,2.6336,2.6324,2.6318,2.6312,2.6295,2.6277,2.6265,2.6258,2.6251,2.625,2.6264,2.6254,2.6203,2.6195,2.6187,2.6185,2.6264,2.6264,2.6309,2.631,2.631]}]]